Weather History for Medford, WI

Change the Weather History Date:

Wednesday, June 12, 2013

  Actual Average Record
Temperature  
Mean Temperature 64 °F -  
Max Temperature 69 °F 74 °F 89 °F (1976)
Min Temperature 59 °F 52 °F 33 °F (1963)
Degree Days  
Heating Degree Days 1    
Growing Degree Days 14 (Base 50)    
Moisture  
Dew Point 60 °F    
Average Humidity 84    
Maximum Humidity 94    
Minimum Humidity 73    
Precipitation  
Precipitation 0.00 in - - ()
Sea Level Pressure  
Sea Level Pressure 29.86 in    
Wind  
Wind Speed 4 mph (East)    
Max Wind Speed 10 mph    
Max Gust Speed -    
Visibility 10 miles    
Events Rain    
Averages and records for this station are not official NWS values.
T = Trace of Precipitation, MM = Missing Value Source: NWS Daily Summary

Daily Weather History Graph

Daily Weather History Graph

Search for Another Location

Airport:

Trip Planner

Search our weather history database for the weather conditions in past years. The results will help you decide how hot, cold, wet, or windy it might be!

Date:

Astronomy

Jun. 12, 2013 Rise Set
Actual Time 5:13 AM CDT 8:48 PM CDT
Civil Twilight 4:36 AM CDT 9:26 PM CDT
Nautical Twilight 3:46 AM CDT 10:15 PM CDT
Astronomical Twilight 2:41 AM CDT 11:21 PM CDT
Moon 9:01 AM CDT (6/12) 11:15 PM CDT (6/12)
Length of Visible Light 16h 50m
Length of Day
15h 35m
Waxing Crescent, 14% of the Moon is Illuminated
Jun 12
Waxing Crescent
Jun 16
First Quarter
Jun 23
Full
Jun 29
Last Quarter
Jul 8
New

Hourly Weather History & Observations

Time (CDT) Temp. Dew Point Humidity Pressure Visibility Wind Dir Wind Speed Gust Speed Precip Events Conditions
12:15 AM 62.6 °F 60.8 °F 94% 29.90 in 10.0 mi Calm Calm - N/A   Scattered Clouds
12:35 AM 62.6 °F 60.8 °F 94% 29.90 in 10.0 mi Calm Calm - N/A   Mostly Cloudy
12:55 AM 62.6 °F 60.8 °F 94% 29.90 in 10.0 mi ENE 3.5 mph - N/A   Scattered Clouds
1:15 AM 64.4 °F 60.8 °F 88% 29.95 in 10.0 mi Calm Calm - N/A   Mostly Cloudy
1:35 AM 62.6 °F 60.8 °F 94% 29.90 in 10.0 mi ESE 4.6 mph - N/A Rain Light Rain
1:55 AM 64.4 °F 55.4 °F 73% 29.88 in 10.0 mi ENE 4.6 mph - N/A   Scattered Clouds
2:15 AM 62.6 °F 55.4 °F 77% 29.90 in 10.0 mi East 4.6 mph - N/A   Clear
2:35 AM 62.6 °F 55.4 °F 77% 29.91 in 10.0 mi East 5.8 mph - N/A   Clear
2:55 AM 62.6 °F 55.4 °F 77% 29.92 in 10.0 mi Calm Calm - N/A   Clear
3:15 AM 60.8 °F 55.4 °F 82% 29.89 in 10.0 mi ENE 5.8 mph - N/A   Clear
3:35 AM 60.8 °F 55.4 °F 82% 29.89 in 10.0 mi East 3.5 mph - N/A   Clear
3:55 AM 60.8 °F 53.6 °F 77% 29.90 in 10.0 mi East 3.5 mph - N/A   Clear
4:15 AM 60.8 °F 53.6 °F 77% 29.95 in 10.0 mi SSW 5.8 mph - N/A   Scattered Clouds
4:35 AM 60.8 °F 55.4 °F 82% 29.94 in 10.0 mi Calm Calm - N/A   Mostly Cloudy
4:55 AM 60.8 °F 55.4 °F 82% 29.91 in 10.0 mi ENE 6.9 mph - N/A   Scattered Clouds
5:15 AM 59.0 °F 55.4 °F 88% 29.86 in 10.0 mi ESE 10.4 mph - N/A   Clear
5:35 AM 62.6 °F 57.2 °F 82% 29.87 in 10.0 mi ESE 10.4 mph - N/A   Clear
5:55 AM 62.6 °F 57.2 °F 82% 29.87 in 10.0 mi East 8.1 mph - N/A   Clear
6:15 AM 62.6 °F 59.0 °F 88% 29.87 in 10.0 mi East 5.8 mph - N/A   Clear
6:35 AM 64.4 °F 59.0 °F 83% 29.89 in 10.0 mi ESE 5.8 mph - N/A   Clear
6:55 AM 64.4 °F 60.8 °F 88% 29.89 in 10.0 mi ESE 6.9 mph - N/A   Scattered Clouds
7:15 AM 64.4 °F 60.8 °F 88% 29.91 in 10.0 mi SE 3.5 mph - N/A   Scattered Clouds
7:35 AM 64.4 °F 60.8 °F 88% 29.92 in 10.0 mi ESE 4.6 mph - N/A   Scattered Clouds
7:55 AM 64.4 °F 60.8 °F 88% 29.91 in 10.0 mi East 4.6 mph - N/A   Clear
8:15 AM 64.4 °F 60.8 °F 88% 29.90 in 10.0 mi East 4.6 mph - N/A   Clear
8:35 AM 64.4 °F 60.8 °F 88% 29.88 in 10.0 mi ESE 6.9 mph - N/A   Clear
8:55 AM 66.2 °F 60.8 °F 83% 29.87 in 10.0 mi ESE 9.2 mph - N/A   Clear
9:15 AM 66.2 °F 60.8 °F 83% 29.87 in 10.0 mi East 10.4 mph - N/A   Clear
9:35 AM 68.0 °F 60.8 °F 78% 29.86 in 10.0 mi ESE 9.2 mph - N/A   Clear
9:55 AM 69.8 °F 60.8 °F 73% 29.86 in 10.0 mi East 6.9 mph - N/A   Clear
10:15 AM 69.8 °F 60.8 °F 73% 29.87 in 10.0 mi SE 3.5 mph - N/A   Clear
10:35 AM 69.8 °F 60.8 °F 73% 29.87 in 10.0 mi East 6.9 mph - N/A   Clear
10:55 AM 69.8 °F 60.8 °F 73% 29.87 in 10.0 mi East 5.8 mph - N/A   Scattered Clouds
11:15 AM 69.8 °F 60.8 °F 73% 29.86 in 10.0 mi East 6.9 mph - N/A   Overcast
11:35 AM 69.8 °F 60.8 °F 73% 29.86 in 10.0 mi East 5.8 mph - N/A   Overcast
11:55 AM 69.8 °F 60.8 °F 73% 29.86 in 10.0 mi East 4.6 mph - N/A   Unknown
12:15 PM 69.8 °F 60.8 °F 73% 29.85 in 10.0 mi ENE 6.9 mph - N/A   Scattered Clouds
12:35 PM 69.8 °F 60.8 °F 73% 29.85 in 10.0 mi East 4.6 mph - N/A   Mostly Cloudy
12:55 PM 68.0 °F 60.8 °F 78% 29.86 in 10.0 mi Calm Calm - N/A Rain Light Rain
1:15 PM 69.8 °F 60.8 °F 73% 29.87 in 10.0 mi SSE 3.5 mph - N/A   Overcast
1:35 PM 68.0 °F 62.6 °F 83% 29.86 in 10.0 mi ESE 6.9 mph - N/A Rain Light Rain
1:55 PM 66.2 °F 60.8 °F 83% 29.87 in 10.0 mi Calm Calm - N/A Rain Light Rain
2:15 PM 68.0 °F 59.0 °F 73% 29.87 in 10.0 mi ESE 3.5 mph - N/A   Overcast
2:35 PM 68.0 °F 62.6 °F 83% 29.86 in 10.0 mi Calm Calm - N/A   Overcast
2:55 PM 68.0 °F 62.6 °F 83% 29.85 in 10.0 mi NE 5.8 mph - N/A   Overcast
3:15 PM 66.2 °F 60.8 °F 83% 29.84 in 10.0 mi NE 4.6 mph - N/A Rain Light Rain
3:35 PM 64.4 °F 60.8 °F 88% 29.84 in 10.0 mi NE 5.8 mph - N/A   Light Drizzle
3:55 PM 64.4 °F 60.8 °F 88% 29.82 in 7.0 mi NE 9.2 mph - N/A Rain Light Rain
4:15 PM 64.4 °F 60.8 °F 88% 29.83 in 10.0 mi Calm Calm - N/A Rain Light Rain
4:35 PM 64.4 °F 60.8 °F 88% 29.84 in 10.0 mi NNW 3.5 mph - N/A Rain Light Rain
4:55 PM 64.4 °F 60.8 °F 88% 29.81 in 10.0 mi NNE 5.8 mph - N/A   Scattered Clouds
5:15 PM 64.4 °F 60.8 °F 88% 29.78 in 10.0 mi East 8.1 mph - N/A Rain Light Rain
5:35 PM 66.2 °F 60.8 °F 83% 29.78 in 10.0 mi ESE 5.8 mph - N/A   Light Drizzle
5:55 PM 66.2 °F 60.8 °F 83% 29.77 in 10.0 mi East 8.1 mph - N/A   Clear
6:15 PM 64.4 °F 60.8 °F 88% 29.77 in 10.0 mi East 4.6 mph - N/A   Clear
6:35 PM 66.2 °F 60.8 °F 83% 29.78 in 10.0 mi ESE 4.6 mph - N/A   Clear
6:55 PM 66.2 °F 60.8 °F 83% 29.78 in 10.0 mi Calm Calm - N/A   Clear
7:15 PM 66.2 °F 60.8 °F 83% 29.79 in 10.0 mi Calm Calm - N/A   Clear
7:35 PM 66.2 °F 60.8 °F 83% 29.81 in 10.0 mi Calm Calm - N/A   Clear
7:55 PM 66.2 °F 60.8 °F 83% 29.81 in 10.0 mi NNE 3.5 mph - N/A   Clear
8:15 PM 66.2 °F 60.8 °F 83% 29.81 in 10.0 mi North 4.6 mph - N/A   Clear
8:35 PM 64.4 °F 60.8 °F 88% 29.84 in 10.0 mi Calm Calm - N/A   Clear
8:55 PM 64.4 °F 60.8 °F 88% 29.83 in 10.0 mi Calm Calm - N/A   Scattered Clouds
9:15 PM 62.6 °F 60.8 °F 94% 29.84 in 10.0 mi Calm Calm - N/A   Mostly Cloudy
9:35 PM 62.6 °F 60.8 °F 94% 29.84 in 10.0 mi Calm Calm - N/A   Overcast
9:55 PM 62.6 °F 60.8 °F 94% 29.84 in 10.0 mi Calm Calm - N/A   Overcast
10:15 PM 62.6 °F 60.8 °F 94% 29.84 in 10.0 mi NNE 3.5 mph - N/A   Overcast
10:35 PM 62.6 °F 60.8 °F 94% 29.84 in 10.0 mi North 3.5 mph - N/A   Overcast
10:55 PM 62.6 °F 60.8 °F 94% 29.84 in 10.0 mi Calm Calm - N/A   Scattered Clouds
11:15 PM 62.6 °F 60.8 °F 94% 29.84 in 10.0 mi Calm Calm - N/A   Scattered Clouds
11:35 PM 62.6 °F 60.8 °F 94% 29.84 in 10.0 mi Calm Calm - N/A   Mostly Cloudy
11:55 PM 62.6 °F 60.8 °F 94% 29.84 in 10.0 mi Calm Calm - N/A   Mostly Cloudy